Welcome to the New NWS' Forecast!
Most changes are behind the scenes, but click here for differences you might notice.
Latest weather observations around

Mount Ida (KMWT)

Using English Units (Switch to International System of Units)
Date/ Time (CDT) Wind (mph) Vis. (mi) Weather Sky Cond. Temp (°F) Rel. Humidity Wind Chill (°F) Heat Index (°F) Pressure Precip. (in)
Air Dwpt 6 hour Altimeter (inHg) Sea level (inHg) 1 hr 3 hr 6 hr
Max Min
May 24 21:53 Calm 10 Clear CLR 54 48     80%     29.7 29.69      
May 24 20:53 Calm 10 Clear CLR 57 49     74%     29.69 29.68      
May 24 19:53 3 10 Clear CLR 63 46     54%     29.68 29.67      
May 24 18:53 NW 7 10 Clear CLR 67 45     45%     29.68 29.67      
May 24 17:53 7 10 Mostly Cloudy BKN080 68 44     42%     29.68 29.67      
May 24 16:53 NNW 8 10 Cloudy FEW050 OVC080 66 44     45%     29.68 29.67      
May 24 15:53 6 10 Cloudy FEW055 OVC080 66 44     45%     29.69 29.67      
May 24 14:53 NW 10 10 Cloudy SCT055 OVC080 66 45     47%     29.69 29.67      
May 24 13:53 6 10 Mostly Cloudy FEW050 BKN075 67 45     45%     29.69 29.67      
May 24 12:53 7 10 Mostly Cloudy SCT050 BKN070 BKN085 65 43     45%     29.69 29.67      
May 24 11:53   10 Mostly Cloudy BKN043 65 44     47%     29.69 29.68      
May 24 09:53 7 10 Mostly Clear FEW034 63 46     54%     29.69 29.68      
May 24 08:53 NW 9 10 Mostly Clear FEW025 60 48     64%     29.7 29.68      
May 24 07:53 NW 7 10 Clear CLR 57 47     69%     29.69 29.68      
May 24 06:53 Calm 10 Clear CLR 53 47     80%     29.68 29.67      
May 24 05:53 Calm 10 Clear CLR 52 47     83%     29.68 29.67      
May 24 04:53 Calm 10 Clear CLR 54 48     80%     29.68 29.67      
May 24 03:53 5 10 Clear CLR 57 49     74%     29.69 29.67      
May 24 02:53 Calm 10 Partly Cloudy FEW100 SCT120 57 52     83%     29.7 29.68      
May 24 01:53 Calm 10 Mostly Clear FEW080 57 53     87%     29.72 29.7      
May 24 00:53 Calm 10 Clear CLR 59 55     87%     29.75 29.72     0
May 23 23:53 Calm 10 Mostly Clear FEW120 59 56     90%     29.76 29.74      
May 23 22:53 Calm 10 Cloudy FEW070 SCT095 OVC110 60 57     90%     29.77 29.75 0    
May 23 21:53 NW 7 10 Light Rain BKN080 OVC095 63 51     65%     29.76 29.74 0 0  
May 23 20:53 3 10 Cloudy FEW055 FEW090 OVC110 66 53     63%     29.75 29.72      
May 23 19:53 NW 8 10 Clear CLR 68 54     61%     29.74 29.72      
May 23 18:53 NNW 3 10 Mostly Clear FEW110 70 56     61%     29.72 29.7      
May 23 17:53 3 10 Mostly Clear FEW044 72 54     53%   71 29.72 29.7      
May 23 16:53 3 10 Clear CLR 72 56     57%   72 29.73 29.71      
May 23 15:53 5 10 Mostly Clear FEW050 74 54     50%   73 29.76 29.74      
May 23 14:53 NNW 8 10 Partly Cloudy SCT055 76 51     42%   75 29.76 29.74      
May 23 13:53 6 10 Partly Cloudy FEW042 SCT055 77 55     47%   77 29.77 29.75      
May 23 12:53 3 10 Mostly Clear FEW035 FEW120 74 57     56%   74 29.8 29.78      
May 23 11:53 5 10 Mostly Cloudy FEW033 BKN120 70 58     66%     29.81 29.79      
May 23 10:53 3 10 Cloudy FEW026 OVC110 68 58     70%     29.83 29.81      
May 23 10:27 WNW 5 10 Cloudy SCT026 BKN031 OVC100 68 58     70%     29.83        
May 23 09:53 3 10 Mostly Cloudy SCT020 BKN025 BKN110 68 58     70%     29.83 29.81      
May 23 08:53 NNW 5 10 Clear CLR 67 59     76%     29.83 29.81      
May 23 07:53 5 10 Mostly Clear FEW085 62 59     90%     29.84 29.83      
May 23 05:53 Calm 10 Clear CLR 58 56     93%     29.84 29.82      
May 23 04:53 Calm 10 Clear CLR 58 55     90%     29.83 29.81      
May 23 03:53 5 10 Cloudy FEW080 BKN095 OVC110 59 57     93%     29.81 29.8 0 0  
May 23 02:53 SE 3 10 Clear CLR 60 54     80%     29.84 29.82      
May 23 01:53 Calm 10 Mostly Cloudy BKN110 57 55     93%     29.88 29.86      
May 23 00:53 Calm 10 Partly Cloudy SCT120 57 55     93%     29.9 29.88      
May 22 23:53 Calm 10 Clear CLR 58 56     93%     29.91 29.89      
May 22 22:53 Calm 10 Clear CLR 60 56     86%     29.94 29.92      
May 22 21:53 Calm 10 Clear CLR 62 56     80%     29.94 29.92      
May 22 20:53 Calm 10 Cloudy OVC060 66 54     65%     29.94 29.92      
May 22 19:53 3 10 Cloudy OVC060 67 53     61%     29.94 29.93      
May 22 18:53 5 10 Cloudy OVC060 70 52     53%     29.94 29.93      
May 22 17:53 SE 5 10 Clear CLR 73 48     41%   72 29.95 29.93      
May 22 16:53 ESE 7 10 Clear CLR 74 50     43%   73 29.96 29.94      
May 22 15:53 SE 8 10 Mostly Clear FEW100 73 49     43%   72 29.98 29.96      
May 22 14:53 5 10 Clear CLR 77 46     33%   76 30 29.98      
May 22 13:53 SSE 6 10 Clear CLR 75 45     34%   74 30.02 30      
May 22 12:53 E 7 10 Clear CLR 74 45     36%   73 30.05 30.03      
May 22 11:53 E 6 10 Clear CLR 73 46     38%   72 30.07 30.05      
May 22 10:53 SE 9 10 Clear CLR 71 46     41%   70 30.09 30.08      
May 22 09:53 ESE 8 10 Clear CLR 70 49     47%     30.1 30.09      
May 22 08:53 SE 5 10 Clear CLR 63 54     72%     30.11 30.1      
May 22 07:53 Calm 10 Clear CLR 58 56     93%     30.13 30.12      
May 22 06:53 Calm 10 Clear CLR 57 55     93%     30.13 30.11      
May 22 05:53 Calm 10 Clear CLR 56 54     93%     30.12 30.1      
May 22 04:53 Calm 10 Clear CLR 57 54     89%     30.12 30.1      
May 22 03:53 Calm 10 Clear CLR 57 55     93%     30.12 30.1      
May 22 02:53 Calm 10 Clear CLR 57 55     93%     30.1 30.08      
May 22 00:53 Calm 10 Clear CLR 58 55     90%     30.1 30.08      
May 21 23:53 Calm 10 Clear CLR 58 54     87%     30.13 30.11      
May 21 22:53 Calm 10 Clear CLR 58 55     90%     30.12 30.11      
May 21 21:53 Calm 10 Clear CLR 60 54     80%     30.12 30.1      
May 21 20:53 Calm 10 Clear CLR 62 53     72%     30.11 30.1      
May 21 19:53 Calm 10 Clear CLR 67 53     61%     30.1 30.09      
May 21 18:53 Calm 10 Clear CLR 72 52     49%   71 30.09 30.07      
May 21 17:53 3 10 Clear CLR 76 47     36%   75 30.09 30.07      
May 21 16:53 Calm 10 Clear CLR 78 46     32%   77 30.1 30.08      
May 21 15:53 Calm 10 Clear CLR 78 47     33%   77 30.08 30.06      
May 21 14:53 5 10 Clear CLR 78 41     27%   77 30.11 30.09      
May 21 13:53 6 10 Clear CLR 77 41     28%   76 30.12 30.1      
May 21 12:53 5 10 Clear CLR 76 46     35%   75 30.14 30.11      
May 21 11:53 6 10 Clear CLR 74 44     34%   73 30.14 30.12      
May 21 10:53 NNW 7 10 Clear CLR 71 47     42%   70 30.14 30.12      
May 21 09:53 7 10 Clear CLR 69 47     45%     30.14 30.11      
May 21 08:53 NW 5 10 Clear CLR 66 49     54%     30.14 30.12      
May 21 07:53 W 3 10 Clear CLR 61 56     83%     30.13 30.11      
May 21 06:53 Calm 10 Clear CLR 55 53     93%     30.11 30.09      
May 21 05:53 Calm 10 Clear CLR 56 54     93%     30.09 30.07      
May 21 04:53 Calm 9 Clear CLR 57 55     93%     30.08 30.06      
May 21 03:53 Calm 10 Clear CLR 59 56     90%     30.07 30.05      
May 21 02:53 NW 3 10 Clear CLR 62 58     86%     30.05 30.03      
May 21 01:53 Calm 10 Mostly Clear FEW090 63 58     84%     30.05 30.02      
May 21 00:53 Calm 10 Clear CLR 62 60     93%     30.04 30.02      
May 20 23:53 Calm 10 Partly Cloudy SCT090 66 59     78%     30.03 30.01      
May 20 22:53 NW 5 10 Mostly Cloudy BKN090 67 61     81%     30.03 30      
May 20 21:53 Calm 10 Cloudy FEW012 BKN055 OVC100 68 62     81%     30 29.98      
May 20 21:32 NNW 3 10 Cloudy SCT011 BKN048 OVC100 68 63     84%     29.99        
May 20 20:53 5 10 Cloudy OVC011 69 64     84%     29.97 29.95      
May 20 20:18 NW 5 10 Mostly Cloudy BKN012 BKN070 70 65     84%     29.95        
May 20 19:53 NW 5 10 Mostly Cloudy SCT036 BKN070 71 66     84%   72 29.95 29.92      
May 20 18:53 Calm 10 Cloudy FEW033 OVC065 76 68     76%   77 29.93 29.9      
May 20 17:53 Calm 10 Mostly Cloudy SCT047 BKN060 77 67     71%   78 29.91 29.87      
May 20 16:53 Calm 10 Mostly Cloudy SCT028 BKN040 BKN055 77 65     66%   78 29.88 29.85      
May 20 15:53 5 10 Partly Cloudy FEW027 SCT036 77 65     66%   78 29.9 29.86      
May 20 14:53 3 10 Clear CLR 78 63     60%   78 29.9 29.86      
May 20 14:14 Calm 10 Partly Cloudy SCT028 76 63     64%   76 29.91        
May 20 13:53 5 10 Partly Cloudy SCT028 76 63     64%   76 29.93 29.89      
May 20 13:25 5 10 Partly Cloudy FEW020 SCT025 75 63     66%   75 29.93        
May 20 12:53 5 10 Cloudy BKN022 OVC028 73 64     73%   73 29.94 29.91     0
May 20 11:53 3 10 Mostly Cloudy BKN020 73 64     73%   73 29.94 29.91      
May 20 10:53 S 5 10 Clear CLR 70 65     84%     29.92 29.88 0    
May 20 09:53 Calm 10 Light Rain FEW004 OVC100 66 63     90%     29.92 29.88 0 0  
May 20 09:27 6 10 Mostly Cloudy BKN003 BKN090 BKN110 66 64     93%     29.92   0    
May 20 08:53 Calm 7 Light Rain SCT003 OVC100 65 63     93%     29.92 29.89 0    
May 20 08:36 Calm 4 Light Rain and Fog/Mist BKN003 BKN050 OVC075 65 64     97%     29.93   0    
May 20 08:15 Calm 3 Rain and Fog/Mist FEW004 BKN060 OVC090 65 63     93%     29.94   0    
May 20 07:53 Calm 4 Rain and Fog/Mist OVC065 65 63     93%     29.94 29.91 0    
May 20 06:59 Calm 3 Rain and Fog/Mist   65 64     97%     29.93   0    
May 20 06:53 Calm 1.75 Heavy Rain and Fog/Mist   65 64     97%     29.92 29.89 1   1
May 20 06:23 NW 8 1.75 Heavy Rain and Fog/Mist SCT020 BKN026 OVC035 67 64     90%     29.93   0    
May 20 05:53 W 6 10 Mostly Cloudy BKN023 BKN028 77 69     77%   78 29.89 29.85      
May 20 04:53 6 10 Mostly Cloudy BKN025 77 69     77%   78 29.86 29.81      
May 20 04:50   10 Mostly Cloudy BKN025 BKN031 77 70     78%   78 29.86        
May 20 03:53 3 10 Clear CLR 77 69     77%   78 29.85 29.81   0  
May 20 02:53 6 10 Mostly Clear FEW021 77 71     82%   78 29.83 29.78      
May 20 01:53 6 10 Mostly Clear FEW024 77 72     84%   78 29.83 29.79 0    
May 20 00:53 5 9 Light Rain FEW042 SCT060 BKN090 77 72     84%   78 29.83 29.79 0   0
May 19 23:53 SSE 8 10 Mostly Cloudy BKN100 79 71     77%   82 29.85 29.81 0    
May 19 22:53 SE 6 10 Cloudy FEW050 BKN090 OVC110 80 70     71%   83 29.86 29.82      
May 19 21:53 SE 6 10 Cloudy FEW075 OVC100 79 70     74%   82 29.84 29.81      
May 19 20:53 ESE 7 10 Clear   79 70     74%   82 29.82 29.79      
May 19 19:53 SE 7 10 Clear CLR 79 70     74%   82 29.8 29.77      
May 19 18:53 SE 5 10 Clear CLR 82 71     69%   86 29.81 29.77      
May 19 17:53 Calm 10 Clear CLR 83 71     67%   88 29.81 29.78      
May 19 16:53 5 10 Clear CLR 84 69     61%   88 29.83 29.8      
May 19 15:53 6 10 Mostly Clear FEW036 85 68     57%   88 29.85 29.82      
May 19 14:53 5 10 Mostly Clear FEW043 84 70     63%   88 29.88 29.84      
May 19 13:53 SE 7 10 Partly Cloudy FEW032 SCT040 SCT070 83 69     63%   87 29.89 29.85      
May 19 12:53 SE 13 10 Mostly Cloudy BKN031 83 68     61%   86 29.89 29.85      
May 19 12:07 5 10 Mostly Cloudy BKN025 BKN032 81 68     65%   84 29.91        
May 19 11:53 5 10 Mostly Cloudy SCT023 BKN031 81 68     65%   84 29.91 29.87      
May 19 10:53 3 10 Cloudy BKN021 BKN026 OVC032 78 69     74%   79 29.92 29.88      
May 19 09:53 3 10 Cloudy BKN020 OVC025 76 68     76%   77 29.92 29.88      
May 19 09:02 SE 6 10 Mostly Cloudy BKN027 BKN032 74 67     79%   75 29.92        
May 19 08:53 6 10 Mostly Cloudy SCT027 BKN032 73 67     81%   74 29.92 29.88      
May 19 08:31 SE 6 10 Mostly Cloudy SCT027 BKN034 73 67     81%   74 29.91        
May 19 07:53 SE 7 10 Mostly Cloudy BKN027 72 65     79%   73 29.91 29.88      
May 19 07:32 SE 5 10 Mostly Cloudy BKN029 70 64     81%     29.92        
May 19 06:53 ENE 3 10 Partly Cloudy SCT028 67 61     81%     29.9 29.87      
May 19 05:53 Calm 10 Cloudy OVC080 68 60     76%     29.89 29.86      
May 19 04:53 ESE 3 10 Clear CLR 67 60     79%     29.88 29.85      
May 19 03:53 SE 7 10 Clear   69 60     73%     29.89 29.86      
May 19 02:53 6 10 Cloudy BKN031 OVC039 72 58     61%   72 29.93 29.9      
May 19 01:53 Calm 10 Mostly Clear FEW070 79 64     60%   79 29.91 29.87      
May 19 00:53 3 10 Clear CLR 79 66     65%   80 29.87 29.83     0
May 18 23:53 5 10 Partly Cloudy SCT090 80 67     64%   82 29.87 29.83      
May 18 22:53   10 Cloudy FEW055 SCT075 OVC095 80 68     67%   83 29.86 29.83      
May 18 21:53 SSE 8 10 Mostly Cloudy FEW040 SCT049 BKN065 80 69     69%   83 29.83 29.79   0  
May 18 20:53 6 10 Mostly Clear FEW090 79 70     74%   82 29.82 29.78      
May 18 19:53 5 9 Clear CLR 79 70     74%   82 29.8 29.76 0    
May 18 18:53 SE 9 9 Light Rain FEW039 FEW050 SCT100 82 69     65%   85 29.8 29.76 0   0
May 18 17:53 SSE 8 10 Mostly Clear FEW049 83 68     61%   86 29.8 29.76      
May 18 16:53 7 10 Partly Cloudy FEW037 FEW045 SCT060 84 68     59%   87 29.82 29.78      
May 18 15:53 SSE 6 10 Mostly Clear FEW037 84 68     59%   87 29.84 29.8      
May 18 14:53 5 10 Partly Cloudy SCT032 84 69     61%   88 29.85 29.81      
May 18 13:53 6 10 Mostly Clear FEW025 83 69     63%   87 29.87 29.83      
May 18 13:48 SSE 8 10 Partly Cloudy SCT025 82 70     66%   86 29.87        
May 18 12:53 SE 7 10 Mostly Cloudy SCT021 BKN026 80 70     71%   83 29.88 29.85      
May 18 11:53   10 Cloudy BKN019 OVC026 77 69     77%   78 29.9 29.86      
May 18 10:45 3 9 Cloudy OVC015 76 69     79%   77 29.89        
May 18 09:53 3 8 Cloudy OVC011 74 69     85%   75 29.89 29.86      
May 18 08:53 3 8 Cloudy OVC011 74 69     85%   75 29.88 29.85      
May 18 07:53 3 8 Cloudy OVC011 73 68     84%   74 29.86 29.83      
May 18 06:53 Calm 10 Cloudy OVC014 73 68     84%   74 29.85 29.81      
May 18 06:44 5 10 Cloudy OVC013 73 68     84%   74 29.85        
May 18 05:53 7 10 Cloudy OVC015 74 67     79%   75 29.84 29.8      
May 18 04:53 3 10 Cloudy BKN018 OVC025 74 67     79%   75 29.83 29.8      
May 18 03:53 7 10 Cloudy OVC020 75 67     76%   76 29.83 29.79      
May 18 02:53 3 10 Cloudy BKN023 OVC027 75 67     76%   76 29.82 29.79      
May 18 01:53   10 Cloudy BKN025 OVC033 76 67     74%   77 29.82 29.78      
May 18 01:03   10 Mostly Cloudy FEW023 BKN029 76 67     74%   77 29.81        
May 18 00:53   10 Mostly Cloudy FEW023 BKN030 BKN040 76 67     74%   77 29.81 29.78     0
May 17 23:53   10 Clear   76 68     76%   77 29.81 29.78      
May 17 23:00 6 10 Mostly Cloudy SCT020 SCT028 BKN036 75 69     82%   76 29.81        
May 17 22:53 6 10 Mostly Cloudy SCT020 BKN028 BKN036 74 69     85%   75 29.81 29.78 0    
May 17 22:27 3 10 Cloudy FEW021 BKN031 OVC050 74 69     85%   75 29.81   0    
May 17 22:05 Calm 9 Light Rain SCT023 BKN029 OVC050 74 69     85%   75 29.8   0    
May 17 21:53 6 10 Light Rain FEW023 BKN041 OVC060 74 69     85%   75 29.8 29.77 0 0  
May 17 20:53 3 10 Mostly Cloudy FEW023 FEW038 BKN055 76 66     71%   77 29.78 29.75      
May 17 19:53 5 10 Clear CLR 77 66     69%   78 29.77 29.73      
May 17 18:53 SSE 6 10 Clear CLR 80 66     62%   82 29.75 29.72      
May 17 17:53 5 10 Mostly Clear FEW070 81 66     61%   83 29.75 29.72      
May 17 16:53 5 10 Mostly Cloudy SCT060 BKN070 81 65     58%   83 29.75 29.72      
May 17 15:53 7 10 Mostly Cloudy FEW046 BKN060 79 66     65%   80 29.75 29.72      
May 17 14:53 7 10 Cloudy SCT026 BKN039 OVC049 77 66     69%   78 29.75 29.72      
May 17 13:53 7 10 Cloudy OVC032 77 66     69%   78 29.75 29.71      
May 17 13:28 SSW 8 10 Cloudy FEW028 BKN035 OVC045 78 65     64%   79 29.75        
May 17 12:53 7 10 Cloudy BKN025 BKN032 OVC039 74 65     74%   74 29.77 29.74     0
May 17 11:53 S 8 10 Cloudy FEW023 BKN044 OVC050 74 65     74%   74 29.78 29.75 0    
May 17 10:53 6 10 Cloudy SCT028 BKN034 OVC044 74 64     71%   74 29.78 29.75      
May 17 09:53 S 8 10 Mostly Clear FEW019 75 64     69%   75 29.75 29.72   0  
May 17 09:39 S 9 10 Partly Cloudy SCT017 73 64     73%   73 29.75        
May 17 09:01 ESE 5 10 Mostly Cloudy BKN016 70 64     81%     29.78        
May 17 08:53 ESE 5 10 Partly Cloudy SCT016 71 65     81%   72 29.79 29.76 0    
May 17 07:53 5 10 Mostly Cloudy FEW020 SCT060 BKN100 71 62     73%   71 29.82 29.79      
May 17 06:53 Calm 10 Mostly Clear FEW120 69 62     78%     29.8 29.77      
May 17 06:23 SE 7 10 Mostly Cloudy SCT024 BKN040 70 61     73%     29.8        
May 17 05:42 Calm 10 Cloudy SCT028 OVC046 71 60     68%   71 29.83        
May 17 05:35 3 10 Cloudy BKN028 OVC046 71 60     68%   71 29.82        
May 17 05:00 5 10 Cloudy SCT025 OVC037 71 60     68%   71 29.81        
May 17 04:53 7 10 Cloudy BKN025 OVC037 71 60     68%   71 29.81 29.77      
May 17 03:53 5 10 Mostly Cloudy BKN025 BKN030 71 60     68%   71 29.72 29.68      
May 17 03:49 5 10 Mostly Cloudy BKN025 72 61     69%   72 29.72        
May 17 02:53 7 10 Clear CLR 72 59     64%   72 29.72 29.68      
May 17 01:53 SSE 9 10 Clear CLR 74 59     60%   74 29.73 29.69      
May 17 00:53 3 10 Partly Cloudy SCT044 75 58     55%   75 29.76 29.72      
May 16 23:53 3 10 Clear CLR 75 58     55%   75 29.77 29.73      
May 16 22:53 SE 7 10 Mostly Cloudy BKN050 76 59     56%   76 29.78 29.75      
May 16 21:53 SSE 8 10 Clear CLR 76 59     56%   76 29.77 29.74      
May 16 20:53 6 10 Clear CLR 77 58     52%   77 29.77 29.74      
May 16 19:53 SSE 9 10 Clear CLR 79 57     47%   79 29.78 29.74      
May 16 18:53 SSE 10 10 Clear CLR 81 56     42%   81 29.79 29.75      
May 16 17:53 5 10 Clear CLR 83 57     41%   82 29.81 29.77      
May 16 16:53 S 10 10 Clear CLR 83 56     40%   82 29.83 29.79      
May 16 15:53 6 10 Clear CLR 83 56     40%   82 29.85 29.81      
May 16 14:53 S 9 10 Clear CLR 82 55     40%   81 29.87 29.83      
May 16 13:53 3 10 Clear CLR 82 55     40%   81 29.89 29.86      
May 16 12:53 5 10 Clear CLR 79 55     44%   79 29.91 29.88      
May 16 11:53 5 10 Clear CLR 79 55     44%   79 29.94 29.91      
May 16 10:53 6 10 Clear CLR 77 54     45%   77 29.93 29.91      
May 16 09:53 3 10 Clear CLR 75 53     46%   74 29.93 29.91      
May 16 08:53 Calm 10 Clear CLR 74 53     48%   73 29.93 29.9      
May 16 07:53 5 10 Clear CLR 72 57     59%   72 29.93 29.9      
May 16 06:53 3 10 Clear CLR 68 58     70%     29.92 29.88      
May 16 05:53 Calm 10 Clear CLR 70 58     66%     29.9 29.87      
May 16 04:53 3 10 Clear CLR 72 56     57%   72 29.9 29.86      
May 16 03:53 5 10 Clear CLR 71 56     59%   71 29.89 29.85      
May 16 02:53 3 10 Clear CLR 71 56     59%   71 29.89 29.85      
May 16 01:53 3 10 Clear CLR 72 56     57%   72 29.89 29.85      
Notice The following observation data may not be complete
May 16 00:53 3 10 Clear CLR   56      %     29.89 29.86      
May 15 23:53 Calm 10 Clear CLR 66 60     81%     29.9 29.87      
May 15 22:53 Calm 10 Clear CLR 68 60     76%     29.91 29.88      
May 15 21:53 Calm 10 Clear CLR 69 61     75%     29.91 29.88      
May 15 20:53 Calm 10 Clear CLR 73 60     64%   73 29.91 29.88      
May 15 19:53 Calm 10 Mostly Clear FEW046 74 61     64%   74 29.91 29.89      
May 15 18:53 Calm 10 Clear   79 59     50%   79 29.9 29.88      
May 15 17:53 SSE 6 10 Clear CLR 82 58     44%   82 29.9 29.88      
May 15 16:53 5 10 Clear CLR 82 59     46%   82 29.91 29.89      
May 15 15:53 6 10 Mostly Clear FEW044 82 59     46%   82 29.92 29.9      
May 15 14:53   10 Mostly Clear FEW046 82 59     46%   82 29.94 29.91      
May 15 13:53 Calm 10 Mostly Clear FEW045 81 59     47%   81 29.95 29.93      
May 15 12:53 6 10 Mostly Clear FEW043 81 59     47%   81 29.97 29.94      
May 15 11:53 Calm 10 Mostly Clear FEW039 80 59     49%   81 29.98 29.96      
May 15 10:53 7 10 Clear CLR 77 58     52%   77 29.99 29.96      
May 15 09:53 Calm 10 Clear CLR 74 60     62%   74 29.99 29.96      
May 15 08:53 Calm 10 Clear CLR 68 59     73%     29.98 29.96      
May 15 07:53 W 3 10 Clear CLR 57 55     93%     29.97 29.95      
May 15 06:53 Calm 5 Fog/Mist CLR 54 52     93%     29.94 29.92      
May 15 05:53 Calm 6 Fog/Mist CLR 53 52     96%     29.95 29.93      
May 15 04:53 Calm 6 Fog/Mist CLR 55 52     89%     29.94 29.91      
May 15 03:53 Calm 8 Clear CLR 55 53     93%     29.95 29.93      
May 15 02:53 Calm 6 Fog/Mist CLR 56 53     90%     29.94 29.92      
May 15 01:53 Calm 7 Clear CLR 57 55     93%     29.94 29.92      
May 15 00:53 Calm 7 Clear CLR 58 56     93%     29.95 29.93      
May 14 23:53 Calm 10 Clear CLR 59 57     93%     29.93 29.91      
May 14 22:53 Calm 10 Clear CLR 64 58     81%     29.93 29.91      
May 14 21:53 Calm 10 Clear CLR 65 58     78%     29.92 29.9      
May 14 20:53 Calm 10 Clear CLR 66 60     81%     29.92 29.9      
May 14 19:53 Calm 10 Clear CLR 72 57     59%   72 29.91 29.9      
May 14 18:53 Calm 10 Clear CLR 78 54     43%   78 29.91 29.89      
May 14 17:53 SSE 3 10 Clear CLR 80 51     36%   79 29.91 29.89      
May 14 15:53 3 10 Clear CLR 80 50     35%   79 29.93 29.91      
May 14 14:53 SE 5 10 Clear CLR 79 51     38%   78 29.95 29.93      
May 14 13:53 Calm 10 Clear CLR 78 51     39%   77 29.97 29.95      
May 14 12:53 Calm 10 Clear CLR 76 48     37%   75 29.98 29.97      
May 14 11:53 3 10 Clear CLR 75 46     36%   74 30 29.98      
May 14 10:53 Calm 10 Mostly Clear FEW037 73 53     50%   72 30.01 29.99      
May 14 09:53 Calm 10 Clear CLR 69 57     65%     30.01 30      
May 14 08:53 Calm 10 Clear CLR 63 56     78%     30.01 30      
May 14 07:53 Calm 10 Clear CLR 54 53     97%     30.01 30      
May 14 06:53 Calm 6 Fog/Mist CLR 49 47     93%     30 29.99      
May 14 05:53 Calm 7 Clear CLR 49 48     97%     29.98 29.96      
May 14 04:53 Calm 8 Clear CLR 50 48     93%     29.96 29.95      
May 14 03:53 Calm 8 Clear CLR 50 48     93%     29.95 29.93      
May 14 02:53 Calm 8 Clear CLR 51 49     92%     29.93 29.91      
May 14 01:53 Calm 8 Clear CLR 53 50     89%     29.92 29.91      
May 14 00:53 Calm 9 Clear CLR 54 52     93%     29.93 29.92      
May 13 23:53 Calm 9 Clear CLR 56 53     90%     29.93 29.91      
May 13 22:53 Calm 10 Clear CLR 57 55     93%     29.93 29.91      
May 13 21:53 Calm 10 Clear CLR 59 56     90%     29.92 29.91      
May 13 20:53 Calm 10 Clear CLR 62 56     80%     29.91 29.9      
May 13 19:53 Calm 10 Clear CLR 67 53     61%     29.91 29.89      
May 13 18:53 3 10 Clear CLR 75 49     40%   74 29.9 29.88      
May 13 17:53 Calm 10 Clear CLR 76 46     35%   75 29.91 29.9